Location: Garos
(43.5000°N, 0.4667°W)
Time: 14:50:03
(UTC+00:00)

Cosmos 1745 Rocket - Pass Details

Date: 03 February 2023
Orbit: 951 x 998 km, 83.0° (Epoch: 24 March)

Event Time Altitude Azimuth Distance (km) Brightness Sun altitude
Rises 19:14:46 0° 352° (N) 3,694 7.1 -21.8°
Reaches altitude 10° 19:17:18 10° 353° (N) 2,735 6.4 -22.3°
Maximum altitude 19:23:35 86° 83° (E) 976 3.9 -23.4°
Drops below altitude 10° 19:29:45 10° 172° (S) 2,685 6.2 -24.6°
Sets 19:32:13 0° 173° (S) 3,622 6.9 -25.0°
